Location: Unspecified
(42.3650°N, 71.1030°W)
Time: 02:25:20
(UTC+00:00)

A-11 Canister half - All Passes

Search period start: 13 June 2024 00:00
Search period end: 23 June 2024 00:00
Orbit: 1525 x 1683 km, 47.3° (Epoch: 12 June)

Date Brightness Start Highest point End Pass type
(mag) Time Alt. Az. Time Alt. Az. Time Alt. Az.
13 Jun - 01:21:13 10° WNW 01:30:36 84° SSW 01:40:14 10° ESE visible
13 Jun - 03:26:44 10° WNW 03:34:49 33° SW 03:43:06 10° SSE visible
13 Jun - 18:44:28 10° SSW 18:53:08 44° SE 19:01:44 10° ENE daylight
13 Jun - 20:48:17 10° WSW 20:57:39 83° NNW 21:07:02 10° ENE daylight
13 Jun - 22:54:04 10° W 23:03:19 65° N 23:12:43 10° E daylight
14 Jun - 00:59:28 10° WNW 01:08:51 87° SSW 01:18:28 10° ESE visible
14 Jun - 03:04:55 10° WNW 03:13:07 35° SW 03:21:32 10° SSE visible
14 Jun - 18:22:51 10° SSW 18:31:26 42° SE 18:39:56 10° ENE daylight
14 Jun - 20:26:31 10° WSW 20:35:53 85° NNW 20:45:16 10° ENE daylight
14 Jun - 22:32:16 10° W 22:41:32 65° N 22:50:54 10° E daylight
15 Jun - 00:37:43 10° WNW 00:47:05 89° SSW 00:56:41 10° ESE visible
15 Jun - 02:43:06 10° WNW 02:51:25 37° SW 02:59:56 10° SSE visible
15 Jun - 18:01:15 10° SSW 18:09:44 40° SE 18:18:08 10° ENE daylight
15 Jun - 20:04:45 10° WSW 20:14:07 87° NNW 20:23:30 10° ENE daylight
15 Jun - 22:10:29 10° W 22:19:44 65° N 22:29:05 10° E daylight
16 Jun - 00:15:58 10° WNW 00:25:20 89° NNE 00:34:54 10° ESE daylight
16 Jun - 02:21:18 10° WNW 02:29:43 39° SW 02:38:20 10° SSE visible
16 Jun - 17:39:39 10° SSW 17:48:03 38° SE 17:56:20 10° ENE daylight
16 Jun - 19:42:59 10° WSW 19:52:22 89° NNW 20:01:44 10° ENE daylight
16 Jun - 21:48:42 10° W 21:57:57 65° N 22:07:16 10° E daylight
16 Jun - 23:54:12 10° WNW 00:03:34 87° NNE 00:13:07 10° ESE daylight
17 Jun - 01:59:30 10° WNW 02:08:01 41° SW 02:16:44 10° SSE visible
17 Jun - 17:18:04 10° SSW 17:26:21 36° SE 17:34:31 10° ENE daylight
17 Jun - 19:21:12 10° WSW 19:30:37 88° SSE 19:39:58 10° ENE daylight
17 Jun - 21:26:53 10° W 21:36:09 65° N 21:45:28 10° E daylight
17 Jun - 23:32:27 10° WNW 23:41:48 85° NNE 23:51:19 10° ESE daylight
18 Jun - 01:37:43 10° WNW 01:46:18 43° SW 01:55:06 10° SSE visible
18 Jun - 16:56:30 10° SSW 17:04:40 34° SE 17:12:43 10° ENE daylight
18 Jun - 18:59:27 10° WSW 19:08:52 86° SSE 19:18:12 10° ENE daylight
18 Jun - 21:05:05 10° W 21:14:22 65° N 21:23:40 10° E daylight
18 Jun - 23:10:41 10° WNW 23:20:02 83° NNE 23:29:32 10° ESE daylight
19 Jun - 01:15:56 10° WNW 01:24:36 45° SW 01:33:28 10° SSE visible
19 Jun - 03:26:33 10° WSW 03:27:46 10° WSW 03:28:59 10° SW visible
19 Jun - 16:34:56 10° SSW 16:42:59 32° SE 16:50:53 10° ENE daylight
19 Jun - 18:37:42 10° WSW 18:47:07 84° SSE 18:56:27 10° ENE daylight
19 Jun - 20:43:17 10° W 20:52:34 66° N 21:01:52 10° ENE daylight
19 Jun - 22:48:55 10° WNW 22:58:16 81° NNE 23:07:44 10° ESE daylight
20 Jun - 00:54:09 10° WNW 01:02:54 47° SW 01:11:49 10° SSE visible
20 Jun - 03:03:30 10° WSW 03:06:07 11° WSW 03:08:46 10° SW visible
20 Jun - 16:13:24 10° S 16:21:18 31° SE 16:29:03 10° ENE daylight
20 Jun - 18:15:57 10° WSW 18:25:22 81° SSE 18:34:41 10° ENE daylight
20 Jun - 20:21:29 10° W 20:30:47 66° N 20:40:04 10° ENE daylight
20 Jun - 22:27:09 10° WNW 22:36:31 79° NNE 22:45:57 10° ESE daylight
21 Jun - 00:32:22 10° WNW 00:41:11 49° SW 00:50:10 10° SSE daylight
21 Jun - 02:40:59 10° W 02:44:27 12° WSW 02:47:58 10° SW visible
21 Jun - 15:51:52 10° S 15:59:37 29° SE 16:07:12 10° ENE daylight
21 Jun - 17:54:11 10° SW 18:03:37 79° SSE 18:12:56 10° ENE daylight
21 Jun - 19:59:41 10° W 20:08:59 67° N 20:18:17 10° ENE daylight
21 Jun - 22:05:23 10° WNW 22:14:44 78° NNE 22:24:09 10° ESE daylight
22 Jun - 00:10:36 10° WNW 00:19:28 52° SW 00:28:30 10° SSE daylight
22 Jun - 02:18:42 10° W 02:22:48 14° WSW 02:26:57 10° SSW visible
22 Jun - 15:30:21 10° S 15:37:56 27° SE 15:45:21 10° ENE daylight
22 Jun - 17:32:27 10° SW 17:41:53 77° SSE 17:51:10 10° ENE daylight
22 Jun - 19:37:52 10° W 19:47:12 67° N 19:56:29 10° ENE daylight
22 Jun - 21:43:37 10° WNW 21:52:58 76° NNE 22:02:21 10° ESE daylight
